,,,PA_Meas_PMT16A,,PR_Meas_QMR101_102,,RH_Meas_QMH101,,SR_Meas_QMS101,,TA_Meas_QMH101,,GenWind,,GenWind,
date,time,status,PA,status,PR,status,RH,status,SR,status,TA,status,DirAvg,status,SpdAvg,
2011-05-09, 00:00:05,VALID,1005.15,VALID,0,INVALID,163.762,VALID,0.100563,VALID,23.8556,VALID,49,VALID,0.147266,
2011-05-09, 00:01:05,VALID,1005.12,VALID,0,INVALID,163.762,VALID,0.100563,VALID,23.8769,VALID,49,VALID,0.249609,
2011-05-09, 00:02:05,VALID,1005.15,VALID,0,INVALID,163.777,VALID,0,VALID,23.8769,VALID,49,VALID,0.244531,
2011-05-09, 00:03:05,VALID,1005.14,VALID,0,INVALID,163.739,VALID,0.100563,VALID,23.8964,VALID,49,VALID,0.1625,
2011-05-09, 00:04:05,VALID,1005.16,VALID,0,INVALID,163.769,VALID,0.100563,VALID,23.8964,VALID,49,VALID,0.349219,
2011-05-09, 00:05:05,VALID,1005.14,VALID,0,INVALID,163.762,VALID,0.100563,VALID,23.8982,VALID,49,VALID,0.291016,
2011-05-09, 00:06:05,VALID,1005.15,VALID,0,INVALID,163.769,VALID,0.100563,VALID,23.8769,VALID,49,VALID,0.486719,
2011-05-09, 00:07:05,VALID,1005.13,VALID,0,INVALID,163.746,VALID,0,VALID,23.8769,VALID,43,VALID,0.455078,
2011-05-09, 00:08:05,VALID,1005.1,VALID,0,INVALID,163.762,VALID,0.100563,VALID,23.8362,VALID,31,VALID,0.580859,
2011-05-09, 00:09:05,VALID,1005.12,VALID,0,INVALID,163.739,VALID,0.100563,VALID,23.8362,VALID,22,VALID,0.270703,
2011-05-09, 00:10:05,VALID,1005.11,VALID,0,INVALID,163.777,VALID,0.100563,VALID,23.8167,VALID,21,VALID,0.461328,
2011-05-09, 00:11:05,VALID,1005.09,VALID,0,INVALID,163.762,VALID,0,VALID,23.838,VALID,17,VALID,0.415625,
2011-05-09, 00:12:05,VALID,1005.11,VALID,0,INVALID,163.754,VALID,0.100563,VALID,23.8362,VALID,17,VALID,0.534766,
2011-05-09, 00:13:05,VALID,1005.1,VALID,0,INVALID,163.784,VALID,0.100563,VALID,23.838,VALID,17,VALID,0.461328,
2011-05-09, 00:14:05,VALID,1005.08,VALID,0,INVALID,163.739,VALID,0,VALID,23.8203,VALID,17,VALID,0.366016,
2011-05-09, 00:15:05,VALID,1005.05,VALID,0,INVALID,163.769,VALID,0,VALID,23.8398,VALID,17,VALID,0.417969,
2011-05-09, 00:16:05,VALID,1005.04,VALID,0,INVALID,163.754,VALID,0,VALID,23.8398,VALID,17,VALID,0.285937,
2011-05-09, 00:17:05,VALID,1005.03,VALID,0,INVALID,163.784,VALID,0,VALID,23.8203,VALID,17,VALID,0.341406,
2011-05-09, 00:18:05,VALID,1005.02,VALID,0,INVALID,163.754,VALID,0,VALID,23.8611,VALID,17,VALID,0.285156,
2011-05-09, 00:19:05,VALID,1005.01,VALID,0,INVALID,163.739,VALID,0,VALID,23.8611,VALID,17,VALID,0.308203,
2011-05-09, 00:20:05,VALID,1005,VALID,0,INVALID,163.762,VALID,0,VALID,23.8185,VALID,17,VALID,0.125391,
2011-05-09, 00:21:05,VALID,1005.01,VALID,0,INVALID,163.769,VALID,0,VALID,23.8185,VALID,17,VALID,0.376563,
2011-05-09, 00:22:05,VALID,1004.97,VALID,0,INVALID,163.746,VALID,0,VALID,23.8185,VALID,17,VALID,0.429297,
2011-05-09, 00:23:05,VALID,1004.97,VALID,0,INVALID,163.777,VALID,0,VALID,23.8203,VALID,17,VALID,0.474609,
2011-05-09, 00:24:05,VALID,1004.93,VALID,0,INVALID,163.762,VALID,0,VALID,23.8203,VALID,17,VALID,0.366797,
2011-05-09, 00:25:05,VALID,1004.9,VALID,0,INVALID,163.762,VALID,0,VALID,23.7796,VALID,17,VALID,0.377734,
2011-05-09, 00:26:05,VALID,1004.89,VALID,0,INVALID,163.762,VALID,0,VALID,23.8416,VALID,17,VALID,0.452734,
2011-05-09, 00:27:05,VALID,1004.88,VALID,0,INVALID,163.762,VALID,0,VALID,23.8009,VALID,17,VALID,0.325,
2011-05-09, 00:28:05,VALID,1004.88,VALID,0,INVALID,163.769,VALID,0,VALID,23.8009,VALID,17,VALID,0.289453,
2011-05-09, 00:29:05,VALID,1004.87,VALID,0,INVALID,163.754,VALID,0,VALID,23.8009,VALID,17,VALID,0.401172,
2011-05-09, 00:30:05,VALID,1004.85,VALID,0,INVALID,163.746,VALID,0,VALID,23.8009,VALID,17,VALID,0.385156,
2011-05-09, 00:31:05,VALID,1004.84,VALID,0,INVALID,163.754,VALID,0,VALID,23.7814,VALID,17,VALID,0.371094,
2011-05-09, 00:32:05,VALID,1004.83,VALID,0,INVALID,163.769,VALID,0,VALID,23.8009,VALID,17,VALID,0.491406,
2011-05-09, 00:33:05,VALID,1004.8,VALID,0,INVALID,163.769,VALID,0,VALID,23.8009,VALID,17,VALID,0.4,
2011-05-09, 00:34:05,VALID,1004.78,VALID,0,INVALID,163.754,VALID,0,VALID,23.8009,VALID,17,VALID,0.372266,
2011-05-09, 00:35:05,VALID,1004.74,VALID,0,INVALID,163.777,VALID,0,VALID,23.8203,VALID,17,VALID,0.275391,
2011-05-09, 00:36:05,VALID,1004.75,VALID,0,INVALID,163.762,VALID,0,VALID,23.7991,VALID,17,VALID,0.0351563,
2011-05-09, 00:37:05,VALID,1004.74,VALID,0,INVALID,163.784,VALID,0,VALID,23.8203,VALID,17,VALID,0,
2011-05-09, 00:38:05,VALID,1004.73,VALID,0,INVALID,163.754,VALID,0,VALID,23.7991,VALID,17,VALID,0,
2011-05-09, 00:39:05,VALID,1004.73,VALID,0,INVALID,163.777,VALID,0,VALID,23.8398,VALID,17,VALID,0,
2011-05-09, 00:40:05,VALID,1004.69,VALID,0,INVALID,163.762,VALID,0,VALID,23.7991,VALID,17,VALID,0,
2011-05-09, 00:41:05,VALID,1004.68,VALID,0,INVALID,163.762,VALID,0,VALID,23.7991,VALID,17,VALID,0,
2011-05-09, 00:42:05,VALID,1004.65,VALID,0,INVALID,163.769,VALID,0,VALID,23.7991,VALID,17,VALID,0,
2011-05-09, 00:43:05,VALID,1004.65,VALID,0,INVALID,163.777,VALID,0,VALID,23.8203,VALID,17,VALID,0,
2011-05-09, 00:44:05,VALID,1004.62,VALID,0,INVALID,163.739,VALID,0.100563,VALID,23.8185,VALID,17,VALID,0,
2011-05-09, 00:45:05,VALID,1004.62,VALID,0,INVALID,163.777,VALID,0.100563,VALID,23.7973,VALID,17,VALID,0,
2011-05-09, 00:46:05,VALID,1004.61,VALID,0,INVALID,163.754,VALID,0.100563,VALID,23.7778,VALID,17,VALID,0,
2011-05-09, 00:47:05,VALID,1004.56,VALID,0,INVALID,163.769,VALID,0,VALID,23.8185,VALID,17,VALID,0,
2011-05-09, 00:48:05,VALID,1004.53,VALID,0,INVALID,163.777,VALID,0.100563,VALID,23.7991,VALID,17,VALID,0,
2011-05-09, 00:49:05,VALID,1004.49,VALID,0,INVALID,163.746,VALID,0,VALID,23.7991,VALID,17,VALID,0,
2011-05-09, 00:50:05,VALID,1004.52,VALID,0,INVALID,163.777,VALID,0.100563,VALID,23.7973,VALID,17,VALID,0,
2011-05-09, 00:51:05,VALID,1004.54,VALID,0,INVALID,163.762,VALID,0.100563,VALID,23.838,VALID,17,VALID,0,
2011-05-09, 00:52:05,VALID,1004.53,VALID,0,INVALID,163.762,VALID,0.100563,VALID,23.7973,VALID,17,VALID,0,
2011-05-09, 00:53:05,VALID,1004.49,VALID,0,INVALID,163.777,VALID,0.100563,VALID,23.7778,VALID,17,VALID,0,
2011-05-09, 00:54:05,VALID,1004.49,VALID,0,INVALID,163.777,VALID,0.100563,VALID,23.8203,VALID,17,VALID,0,
2011-05-09, 00:55:05,VALID,1004.5,VALID,0,INVALID,163.777,VALID,0,VALID,23.7991,VALID,17,VALID,0,
2011-05-09, 00:56:05,VALID,1004.51,VALID,0,INVALID,163.754,VALID,0,VALID,23.7796,VALID,17,VALID,0,
2011-05-09, 00:57:05,VALID,1004.49,VALID,0,INVALID,163.762,VALID,0.100563,VALID,23.7583,VALID,17,VALID,0,
2011-05-09, 00:58:05,VALID,1004.51,VALID,0,INVALID,163.762,VALID,0,VALID,23.7601,VALID,17,VALID,0,
2011-05-09, 00:59:05,VALID,1004.5,VALID,0,INVALID,163.762,VALID,0.100563,VALID,23.7601,VALID,17,VALID,0,
2011-05-09, 01:00:05,VALID,1004.5,VALID,0,INVALID,163.754,VALID,0.100563,VALID,23.7601,VALID,17,VALID,0,
2011-05-09, 01:01:05,VALID,1004.5,VALID,0,INVALID,163.754,VALID,0,VALID,23.7583,VALID,17,VALID,0,
2011-05-09, 01:02:05,VALID,1004.51,VALID,0,INVALID,163.769,VALID,0.100563,VALID,23.7796,VALID,17,VALID,0,
2011-05-09, 01:03:05,VALID,1004.53,VALID,0,INVALID,163.777,VALID,0,VALID,23.7796,VALID,17,VALID,0,
2011-05-09, 01:04:05,VALID,1004.51,VALID,0,INVALID,163.784,VALID,0.100563,VALID,23.7796,VALID,17,VALID,0,
2011-05-09, 01:05:05,VALID,1004.51,VALID,0,INVALID,163.769,VALID,0,VALID,23.7583,VALID,15,VALID,0,
2011-05-09, 01:06:05,VALID,1004.53,VALID,0,INVALID,163.769,VALID,0.100563,VALID,23.8203,VALID,15,VALID,0,
2011-05-09, 01:07:05,VALID,1004.53,VALID,0,INVALID,163.784,VALID,0.100563,VALID,23.7991,VALID,15,VALID,0,
2011-05-09, 01:08:05,VALID,1004.53,VALID,0,INVALID,163.731,VALID,0,VALID,23.8203,VALID,15,VALID,0,
2011-05-09, 01:09:05,VALID,1004.53,VALID,0,INVALID,163.746,VALID,0,VALID,23.7991,VALID,15,VALID,0,
2011-05-09, 01:10:05,VALID,1004.55,VALID,0,INVALID,163.769,VALID,0.100563,VALID,23.8185,VALID,15,VALID,0,
2011-05-09, 01:11:05,VALID,1004.54,VALID,0,INVALID,163.746,VALID,0.100563,VALID,23.8185,VALID,14,VALID,0,
2011-05-09, 01:12:05,VALID,1004.55,VALID,0,INVALID,163.754,VALID,0.100563,VALID,23.8167,VALID,14,VALID,0,
2011-05-09, 01:13:05,VALID,1004.56,VALID,0,INVALID,163.754,VALID,0.100563,VALID,23.838,VALID,14,VALID,0,
2011-05-09, 01:14:05,VALID,1004.51,VALID,0,INVALID,163.746,VALID,0,VALID,23.838,VALID,14,VALID,0,
2011-05-09, 01:15:05,VALID,1004.53,VALID,0,INVALID,163.762,VALID,0,VALID,23.8593,VALID,14,VALID,0,
2011-05-09, 01:16:05,VALID,1004.55,VALID,0,INVALID,163.769,VALID,0,VALID,23.8575,VALID,14,VALID,0,
2011-05-09, 01:17:05,VALID,1004.54,VALID,0,INVALID,163.762,VALID,0,VALID,23.8787,VALID,14,VALID,0,
2011-05-09, 01:18:05,VALID,1004.58,VALID,0,INVALID,163.746,VALID,0,VALID,23.8787,VALID,14,VALID,0,
2011-05-09, 01:19:05,VALID,1004.56,VALID,0,INVALID,163.769,VALID,0,VALID,23.8787,VALID,14,VALID,0,
2011-05-09, 01:20:05,VALID,1004.58,VALID,0,INVALID,163.784,VALID,0,VALID,23.9,VALID,14,VALID,0,
2011-05-09, 01:21:05,VALID,1004.58,VALID,0,INVALID,163.731,VALID,0,VALID,23.8593,VALID,14,VALID,0,
2011-05-09, 01:22:05,VALID,1004.59,VALID,0,INVALID,163.762,VALID,0,VALID,23.8787,VALID,14,VALID,0,
2011-05-09, 01:23:05,VALID,1004.57,VALID,0,INVALID,163.769,VALID,0,VALID,23.8575,VALID,14,VALID,0,
2011-05-09, 01:24:05,VALID,1004.6,VALID,0,INVALID,163.762,VALID,0,VALID,23.8593,VALID,14,VALID,0,
2011-05-09, 01:25:05,VALID,1004.58,VALID,0,INVALID,163.769,VALID,0,VALID,23.8787,VALID,14,VALID,0,
2011-05-09, 01:26:05,VALID,1004.61,VALID,0,INVALID,163.762,VALID,0,VALID,23.8575,VALID,14,VALID,0,
2011-05-09, 01:27:05,VALID,1004.61,VALID,0,INVALID,163.762,VALID,0,VALID,23.9195,VALID,14,VALID,0,
2011-05-09, 01:28:05,VALID,1004.6,VALID,0,INVALID,163.762,VALID,0,VALID,23.8982,VALID,14,VALID,0,
2011-05-09, 01:29:05,VALID,1004.61,VALID,0,INVALID,163.754,VALID,0,VALID,23.8787,VALID,14,VALID,0,
2011-05-09, 01:30:05,VALID,1004.62,VALID,0,INVALID,163.746,VALID,0,VALID,23.9177,VALID,14,VALID,0,
2011-05-09, 01:31:05,VALID,1004.61,VALID,0,INVALID,163.754,VALID,0,VALID,23.9177,VALID,14,VALID,0,
2011-05-09, 01:32:05,VALID,1004.62,VALID,0,INVALID,163.762,VALID,0,VALID,23.8769,VALID,14,VALID,0,
2011-05-09, 01:33:05,VALID,1004.63,VALID,0,INVALID,163.754,VALID,0,VALID,23.9177,VALID,14,VALID,0,
2011-05-09, 01:34:05,VALID,1004.62,VALID,0,INVALID,163.746,VALID,0,VALID,23.9159,VALID,14,VALID,0,
2011-05-09, 01:35:05,VALID,1004.62,VALID,0,INVALID,163.762,VALID,0,VALID,23.9177,VALID,14,VALID,0,
2011-05-09, 01:36:05,VALID,1004.63,VALID,0,INVALID,163.739,VALID,0,VALID,23.9159,VALID,14,VALID,0,
2011-05-09, 01:37:05,VALID,1004.64,VALID,0,INVALID,163.762,VALID,0,VALID,23.9566,VALID,14,VALID,0,
2011-05-09, 01:38:05,VALID,1004.66,VALID,0,INVALID,163.769,VALID,0,VALID,23.9371,VALID,14,VALID,0,
2011-05-09, 01:39:05,VALID,1004.66,VALID,0,INVALID,163.739,VALID,0,VALID,23.9353,VALID,14,VALID,0,
2011-05-09, 01:40:05,VALID,1004.66,VALID,0,INVALID,163.723,VALID,0,VALID,23.9566,VALID,14,VALID,0,
2011-05-09, 01:41:05,VALID,1004.67,VALID,0,INVALID,163.754,VALID,0,VALID,23.9353,VALID,14,VALID,0,
2011-05-09, 01:42:05,VALID,1004.7,VALID,0,INVALID,163.746,VALID,0,VALID,23.9761,VALID,14,VALID,0,
2011-05-09, 01:43:05,VALID,1004.74,VALID,0,INVALID,163.739,VALID,0,VALID,23.9566,VALID,14,VALID,0,
2011-05-09, 01:44:05,VALID,1004.77,VALID,0,INVALID,163.769,VALID,0,VALID,23.9742,VALID,14,VALID,0,
2011-05-09, 01:45:05,VALID,1004.81,VALID,0,INVALID,163.754,VALID,0.100563,VALID,23.9937,VALID,14,VALID,0,
2011-05-09, 01:46:05,VALID,1004.81,VALID,0,INVALID,163.739,VALID,0.100563,VALID,23.9724,VALID,12,VALID,0,
2011-05-09, 01:47:05,VALID,1004.83,VALID,0,INVALID,163.739,VALID,0.100563,VALID,23.9937,VALID,12,VALID,0,
2011-05-09, 01:48:05,VALID,1004.83,VALID,0,INVALID,163.746,VALID,0.100563,VALID,23.9742,VALID,12,VALID,0,
2011-05-09, 01:49:05,VALID,1004.87,VALID,0,INVALID,163.723,VALID,0.100563,VALID,23.9742,VALID,12,VALID,0,
2011-05-09, 01:50:05,VALID,1004.87,VALID,0,INVALID,163.762,VALID,0.100563,VALID,23.9937,VALID,12,VALID,0,
2011-05-09, 01:51:05,VALID,1004.88,VALID,0,INVALID,163.754,VALID,0.100563,VALID,23.9937,VALID,12,VALID,0,
2011-05-09, 01:52:05,VALID,1004.92,VALID,0,INVALID,163.762,VALID,0,VALID,24.0132,VALID,12,VALID,0,
2011-05-09, 01:53:05,VALID,1004.93,VALID,0,INVALID,163.762,VALID,0.100563,VALID,24.0326,VALID,12,VALID,0,
2011-05-09, 01:54:05,VALID,1004.93,VALID,0,INVALID,163.731,VALID,0,VALID,24.0326,VALID,12,VALID,0,
2011-05-09, 01:55:05,VALID,1004.93,VALID,0,INVALID,163.746,VALID,0.100563,VALID,24.0308,VALID,12,VALID,0,
2011-05-09, 01:56:05,VALID,1004.92,VALID,0,INVALID,163.754,VALID,0,VALID,24.0114,VALID,12,VALID,0,
2011-05-09, 01:57:05,VALID,1004.92,VALID,0,INVALID,163.762,VALID,0,VALID,24.0521,VALID,12,VALID,0,
2011-05-09, 01:58:05,VALID,1004.95,VALID,0,INVALID,163.731,VALID,0.100563,VALID,24.0716,VALID,12,VALID,0,
2011-05-09, 01:59:05,VALID,1004.88,VALID,0,INVALID,163.754,VALID,0,VALID,24.091,VALID,12,VALID,0,
2011-05-09, 02:00:05,VALID,1004.92,VALID,0,INVALID,163.731,VALID,0.100563,VALID,24.091,VALID,12,VALID,0,
2011-05-09, 02:01:04,VALID,1004.95,VALID,0,INVALID,163.723,VALID,0.100563,VALID,24.1318,VALID,12,VALID,0,
2011-05-09, 02:02:04,VALID,1004.93,VALID,0,INVALID,163.769,VALID,0,VALID,24.1105,VALID,12,VALID,0,
2011-05-09, 02:03:04,VALID,1004.94,VALID,0,INVALID,163.769,VALID,0.100563,VALID,24.1105,VALID,8,VALID,0,
2011-05-09, 02:04:04,VALID,1004.95,VALID,0,INVALID,163.739,VALID,0,VALID,24.1105,VALID,6,VALID,0.560547,
2011-05-09, 02:05:04,VALID,1004.97,VALID,0,INVALID,163.731,VALID,0,VALID,24.1105,VALID,6,VALID,0.588281,
2011-05-09, 02:06:04,VALID,1004.99,VALID,0,INVALID,163.746,VALID,0,VALID,24.1105,VALID,5,VALID,0.560938,
2011-05-09, 02:07:04,VALID,1004.99,VALID,0,INVALID,163.739,VALID,0,VALID,24.1123,VALID,5,VALID,0.574609,
2011-05-09, 02:08:04,VALID,1005.02,VALID,0,INVALID,163.739,VALID,0,VALID,24.091,VALID,5,VALID,0.482812,
2011-05-09, 02:09:04,VALID,1005.05,VALID,0,INVALID,163.746,VALID,0,VALID,24.0716,VALID,5,VALID,0.530859,
2011-05-09, 02:10:04,VALID,1005.09,VALID,0,INVALID,163.739,VALID,0,VALID,24.0521,VALID,5,VALID,0.543359,
2011-05-09, 02:11:04,VALID,1005.13,VALID,0,INVALID,163.754,VALID,0,VALID,24.0716,VALID,5,VALID,0.491016,
2011-05-09, 02:12:04,VALID,1005.11,VALID,0,INVALID,163.739,VALID,0.100563,VALID,24.0716,VALID,5,VALID,0.347656,
2011-05-09, 02:13:04,VALID,1005.16,VALID,0,INVALID,163.746,VALID,0.100563,VALID,24.0716,VALID,5,VALID,0.408594,
2011-05-09, 02:14:04,VALID,1005.15,VALID,0,INVALID,163.731,VALID,0,VALID,24.091,VALID,352,VALID,0.78125,
2011-05-09, 02:15:04,VALID,1005.17,VALID,0,INVALID,163.754,VALID,0.100563,VALID,24.13,VALID,356,VALID,0.667578,
2011-05-09, 02:16:04,VALID,1005.15,VALID,0,INVALID,163.739,VALID,0.100563,VALID,24.1494,VALID,357,VALID,0.895703,
2011-05-09, 02:17:04,VALID,1005.18,VALID,0,INVALID,163.723,VALID,0,VALID,24.1689,VALID,355,VALID,0.735547,
2011-05-09, 02:18:04,VALID,1005.18,VALID,0,INVALID,163.731,VALID,0,VALID,24.2097,VALID,348,VALID,0.572266,
2011-05-09, 02:19:04,VALID,1005.16,VALID,0,INVALID,163.723,VALID,0,VALID,24.1865,VALID,347,VALID,0.43125,
2011-05-09, 02:20:04,VALID,1005.18,VALID,0,INVALID,163.731,VALID,0,VALID,24.2097,VALID,347,VALID,0.755469,
2011-05-09, 02:21:04,VALID,1005.18,VALID,0,INVALID,163.716,VALID,0.100563,VALID,24.1689,VALID,351,VALID,0.795703,
2011-05-09, 02:22:04,VALID,1005.21,VALID,0,INVALID,163.754,VALID,0.100563,VALID,24.1689,VALID,353,VALID,1.00312,
2011-05-09, 02:23:04,VALID,1005.22,VALID,0,INVALID,163.731,VALID,0.100563,VALID,24.1689,VALID,357,VALID,1.19648,
2011-05-09, 02:24:04,VALID,1005.24,VALID,0,INVALID,163.731,VALID,0.100563,VALID,24.1476,VALID,347,VALID,0.771875,
2011-05-09, 02:25:04,VALID,1005.23,VALID,0,INVALID,163.739,VALID,0,VALID,24.1494,VALID,347,VALID,0.695703,
2011-05-09, 02:26:04,VALID,1005.26,VALID,0,INVALID,163.723,VALID,0.100563,VALID,24.1689,VALID,347,VALID,0.541797,
2011-05-09, 02:27:04,VALID,1005.28,VALID,0,INVALID,163.762,VALID,0.100563,VALID,24.1689,VALID,357,VALID,0.671094,
2011-05-09, 02:28:04,VALID,1005.27,VALID,0,INVALID,163.723,VALID,0.100563,VALID,24.1902,VALID,350,VALID,0.667969,
2011-05-09, 02:29:04,VALID,1005.28,VALID,0,INVALID,163.746,VALID,0.100563,VALID,24.1689,VALID,347,VALID,0.65625,
2011-05-09, 02:30:04,VALID,1005.26,VALID,0,INVALID,163.731,VALID,0.100563,VALID,24.1884,VALID,341,VALID,0.842188,
2011-05-09, 02:31:04,VALID,1005.29,VALID,0,INVALID,163.739,VALID,0.100563,VALID,24.1671,VALID,353,VALID,0.540625,
2011-05-09, 02:32:04,VALID,1005.29,VALID,0,INVALID,163.739,VALID,0.100563,VALID,24.1865,VALID,347,VALID,0.729688,
2011-05-09, 02:33:04,VALID,1005.3,VALID,0,INVALID,163.708,VALID,0.100563,VALID,24.2273,VALID,347,VALID,0.261719,
2011-05-09, 02:34:04,VALID,1005.3,VALID,0,INVALID,163.731,VALID,0.100563,VALID,24.2273,VALID,348,VALID,0.405078,
2011-05-09, 02:35:04,VALID,1005.3,VALID,0,INVALID,163.708,VALID,0.100563,VALID,24.2273,VALID,4,VALID,0.292969,
2011-05-09, 02:36:04,VALID,1005.32,VALID,0,INVALID,163.739,VALID,0,VALID,24.2273,VALID,4,VALID,0,
2011-05-09, 02:37:04,VALID,1005.32,VALID,0,INVALID,163.716,VALID,0.100563,VALID,24.206,VALID,4,VALID,0,
2011-05-09, 02:38:04,VALID,1005.32,VALID,0,INVALID,163.746,VALID,0,VALID,24.2291,VALID,4,VALID,0.0933594,
2011-05-09, 02:39:04,VALID,1005.29,VALID,0,INVALID,163.716,VALID,0.100563,VALID,24.1884,VALID,336,VALID,0.0695312,
2011-05-09, 02:40:04,VALID,1005.31,VALID,0,INVALID,163.731,VALID,0,VALID,24.1902,VALID,354,VALID,0.685156,
2011-05-09, 02:41:04,VALID,1005.31,VALID,0,INVALID,163.716,VALID,0.100563,VALID,24.1689,VALID,67,VALID,0.433594,
2011-05-09, 02:42:04,VALID,1005.29,VALID,0,INVALID,163.723,VALID,0.100563,VALID,24.1494,VALID,357,VALID,0.665234,
2011-05-09, 02:43:04,VALID,1005.33,VALID,0,INVALID,163.731,VALID,0.100563,VALID,24.1318,VALID,356,VALID,0.729297,
2011-05-09, 02:44:04,VALID,1005.3,VALID,0,INVALID,163.723,VALID,0,VALID,24.1105,VALID,352,VALID,0.768359,
2011-05-09, 02:45:04,VALID,1005.37,VALID,0,INVALID,163.739,VALID,0,VALID,24.1105,VALID,348,VALID,0.801562,
2011-05-09, 02:46:04,VALID,1005.36,VALID,0,INVALID,163.708,VALID,0.100563,VALID,24.091,VALID,345,VALID,0.697266,
2011-05-09, 02:47:04,VALID,1005.4,VALID,0,INVALID,163.731,VALID,0,VALID,24.091,VALID,341,VALID,0.604688,
2011-05-09, 02:48:04,VALID,1005.4,VALID,0,INVALID,163.739,VALID,0.100563,VALID,24.0716,VALID,351,VALID,0.561719,
2011-05-09, 02:49:04,VALID,1005.4,VALID,0,INVALID,163.739,VALID,0,VALID,24.0521,VALID,352,VALID,0.415625,
2011-05-09, 02:50:04,VALID,1005.43,VALID,0,INVALID,163.746,VALID,0,VALID,24.0716,VALID,352,VALID,0.323438,
2011-05-09, 02:51:04,VALID,1005.41,VALID,0,INVALID,163.746,VALID,0,VALID,24.0326,VALID,352,VALID,0.187109,
2011-05-09, 02:52:04,VALID,1005.42,VALID,0,INVALID,163.746,VALID,0.100563,VALID,24.0503,VALID,352,VALID,0.1125,
2011-05-09, 02:53:04,VALID,1005.42,VALID,0,INVALID,163.746,VALID,0,VALID,24.0716,VALID,352,VALID,0.009375,
2011-05-09, 02:54:04,VALID,1005.43,VALID,0,INVALID,163.754,VALID,0,VALID,24.091,VALID,356,VALID,0.480469,
2011-05-09, 02:55:04,VALID,1005.44,VALID,0,INVALID,163.739,VALID,0.100563,VALID,24.13,VALID,1,VALID,0.292969,
2011-05-09, 02:56:04,VALID,1005.44,VALID,0,INVALID,163.708,VALID,0,VALID,24.1494,VALID,360,VALID,0.421875,
2011-05-09, 02:57:04,VALID,1005.47,VALID,0,INVALID,163.701,VALID,0,VALID,24.1884,VALID,360,VALID,0.320313,
2011-05-09, 02:58:04,VALID,1005.47,VALID,0,INVALID,163.746,VALID,0,VALID,24.1884,VALID,1,VALID,0.545313,
2011-05-09, 02:59:04,VALID,1005.48,VALID,0,INVALID,163.716,VALID,0.100563,VALID,24.1671,VALID,10,VALID,0.640625,
2011-05-09, 03:00:04,VALID,1005.5,VALID,0,INVALID,163.723,VALID,0,VALID,24.1476,VALID,24,VALID,0.730469,
2011-05-09, 03:01:04,VALID,1005.52,VALID,0,INVALID,163.746,VALID,0,VALID,24.1494,VALID,8,VALID,0.500391,
2011-05-09, 03:02:04,VALID,1005.56,VALID,0,INVALID,163.739,VALID,0,VALID,24.13,VALID,29,VALID,0.649609,
2011-05-09, 03:03:04,VALID,1005.58,VALID,0,INVALID,163.769,VALID,0,VALID,24.1105,VALID,29,VALID,0.386719,
2011-05-09, 03:04:04,VALID,1005.59,VALID,0,INVALID,163.754,VALID,0,VALID,24.0892,VALID,344,VALID,0.778906,
2011-05-09, 03:05:04,VALID,1005.64,VALID,0,INVALID,163.754,VALID,0,VALID,24.13,VALID,341,VALID,0.516797,
2011-05-09, 03:06:04,VALID,1005.63,VALID,0,INVALID,163.731,VALID,0.100563,VALID,24.1689,VALID,347,VALID,0.203516,
2011-05-09, 03:07:04,VALID,1005.65,VALID,0,INVALID,163.731,VALID,0,VALID,24.1671,VALID,347,VALID,0.319141,
2011-05-09, 03:08:04,VALID,1005.61,VALID,0,INVALID,163.723,VALID,0,VALID,24.2273,VALID,351,VALID,0.671094,
2011-05-09, 03:09:04,VALID,1005.62,VALID,0,INVALID,163.716,VALID,0.100563,VALID,24.2875,VALID,327,VALID,0.617578,
2011-05-09, 03:10:04,VALID,1005.61,VALID,0,INVALID,163.716,VALID,0,VALID,24.2857,VALID,328,VALID,0,
2011-05-09, 03:11:04,VALID,1005.57,VALID,0,INVALID,163.708,VALID,0,VALID,24.3052,VALID,328,VALID,0,
2011-05-09, 03:12:04,VALID,1005.56,VALID,0,INVALID,163.762,VALID,0,VALID,24.3052,VALID,317,VALID,0.204297,
2011-05-09, 03:13:04,VALID,1005.58,VALID,0,INVALID,163.746,VALID,0,VALID,24.3052,VALID,288,VALID,0.803125,
2011-05-09, 03:14:04,VALID,1005.53,VALID,0,INVALID,163.731,VALID,0,VALID,24.3265,VALID,292,VALID,0.369922,
2011-05-09, 03:15:04,VALID,1005.52,VALID,0,INVALID,163.701,VALID,0,VALID,24.3246,VALID,292,VALID,0,
2011-05-09, 03:16:04,VALID,1005.55,VALID,0,INVALID,163.701,VALID,0,VALID,24.3246,VALID,292,VALID,0.0882813,
2011-05-09, 03:17:04,VALID,1005.52,VALID,0,INVALID,163.708,VALID,0,VALID,24.3441,VALID,292,VALID,0.115234,
2011-05-09, 03:18:04,VALID,1005.52,VALID,0,INVALID,163.731,VALID,0,VALID,24.3441,VALID,292,VALID,0.0515625,
2011-05-09, 03:19:04,VALID,1005.49,VALID,0,INVALID,163.723,VALID,0,VALID,24.3441,VALID,292,VALID,0.158984,
2011-05-09, 03:20:04,VALID,1005.52,VALID,0,INVALID,163.762,VALID,0.100563,VALID,24.3441,VALID,292,VALID,0.0234375,
2011-05-09, 03:21:04,VALID,1005.53,VALID,0,INVALID,163.708,VALID,0,VALID,24.3441,VALID,292,VALID,0.4875,
2011-05-09, 03:22:04,VALID,1005.57,VALID,0,INVALID,163.731,VALID,0,VALID,24.2857,VALID,332,VALID,0.562109,
2011-05-09, 03:23:04,VALID,1005.57,VALID,0,INVALID,163.716,VALID,0,VALID,24.2681,VALID,358,VALID,0.622656,
2011-05-09, 03:24:04,VALID,1005.57,VALID,0,INVALID,163.762,VALID,0.100563,VALID,24.2078,VALID,358,VALID,0.580078,
2011-05-09, 03:25:04,VALID,1005.59,VALID,0,INVALID,163.746,VALID,0,VALID,24.1689,VALID,358,VALID,0.557813,
2011-05-09, 03:26:04,VALID,1005.57,VALID,0,INVALID,163.746,VALID,0,VALID,24.13,VALID,358,VALID,0.484375,
2011-05-09, 03:27:04,VALID,1005.56,VALID,0,INVALID,163.754,VALID,0,VALID,24.1087,VALID,358,VALID,0.394141,
2011-05-09, 03:28:04,VALID,1005.52,VALID,0,INVALID,163.731,VALID,0,VALID,24.091,VALID,358,VALID,0.397266,
2011-05-09, 03:29:04,VALID,1005.53,VALID,0,INVALID,163.754,VALID,0,VALID,24.0716,VALID,358,VALID,0.383984,
2011-05-09, 03:30:04,VALID,1005.54,VALID,0,INVALID,163.723,VALID,0,VALID,24.0716,VALID,358,VALID,0.352344,
2011-05-09, 03:31:04,VALID,1005.53,VALID,0,INVALID,163.739,VALID,0.100563,VALID,24.0929,VALID,358,VALID,0.356641,
2011-05-09, 03:32:04,VALID,1005.54,VALID,0,INVALID,163.754,VALID,0,VALID,24.0521,VALID,358,VALID,0.439844,
2011-05-09, 03:33:04,VALID,1005.55,VALID,0,INVALID,163.739,VALID,0,VALID,24.0114,VALID,358,VALID,0.318359,
2011-05-09, 03:34:04,VALID,1005.52,VALID,0,INVALID,163.754,VALID,0.100563,VALID,24.0539,VALID,358,VALID,0,
2011-05-09, 03:35:04,VALID,1005.52,VALID,0,INVALID,163.762,VALID,0,VALID,24.0345,VALID,358,VALID,0,
2011-05-09, 03:36:04,VALID,1005.51,VALID,0,INVALID,163.762,VALID,0,VALID,24.0326,VALID,358,VALID,0,
2011-05-09, 03:37:04,VALID,1005.45,VALID,0,INVALID,163.739,VALID,0,VALID,24.0326,VALID,358,VALID,0,
2011-05-09, 03:38:04,VALID,1005.44,VALID,0,INVALID,163.784,VALID,0,VALID,24.0326,VALID,358,VALID,0,
2011-05-09, 03:39:04,VALID,1005.41,VALID,0,INVALID,163.731,VALID,0.100563,VALID,24.0539,VALID,358,VALID,0,
2011-05-09, 03:40:04,VALID,1005.39,VALID,0,INVALID,163.754,VALID,0,VALID,24.0326,VALID,358,VALID,0,
2011-05-09, 03:41:04,VALID,1005.47,VALID,0,INVALID,163.746,VALID,0,VALID,24.0326,VALID,358,VALID,0.341797,
2011-05-09, 03:42:04,VALID,1005.49,VALID,0,INVALID,163.777,VALID,0.100563,VALID,23.9919,VALID,358,VALID,0.707031,